When you browse on this site, cookies collect data to enhance your experience and personalize the content and advertising you see.
Visit our Privacy Policy to learn more. By continuing to use the site, you agree to this use of cookies and data.
  • Em Portugal
  • Lista de países
  • Para 7 dias
  • Temperatura da água
  • Mapa do tempo
  • Widgets de tempo
  • user-avatar
    Iniciar Sessão

    Previsão horária em Río Gallegos

    Hoje, 17 Fevereiro, Segunda-feira

    Tempo Temperatura Precipitação Vento Pressão Humidade
    00:00 +6°C° 0 mm 9 m/s 749 mmHg 65%
    01:00 +5°C° 0 mm 8 m/s 750 mmHg 67%
    02:00 +5°C° 0 mm 7 m/s 750 mmHg 68%
    03:00 +5°C° 0 mm 6 m/s 750 mmHg 69%
    04:00 +6°C° 0 mm 5 m/s 750 mmHg 70%
    05:00 +7°C° 0 mm 5 m/s 751 mmHg 66%
    06:00 +7°C° 0 mm 4 m/s 751 mmHg 62%
    07:00 +8°C° 0 mm 4 m/s 751 mmHg 58%
    08:00 +10°C° 0 mm 5 m/s 750 mmHg 52%
    09:00 +11°C° 0 mm 7 m/s 750 mmHg 46%
    10:00 +13°C° 0 mm 8 m/s 750 mmHg 41%
    11:00 +15°C° 0 mm 9 m/s 749 mmHg 38%
    12:00 +15°C° 0 mm 9 m/s 748 mmHg 36%
    13:00 +16°C° 0 mm 9 m/s 747 mmHg 34%
    14:00 +16°C° 0 mm 9 m/s 746 mmHg 33%
    15:00 +16°C° 0 mm 10 m/s 746 mmHg 32%
    16:00 +16°C° 0 mm 10 m/s 745 mmHg 31%
    17:00 +16°C° 0 mm 10 m/s 744 mmHg 34%
    18:00 +16°C° 0 mm 10 m/s 743 mmHg 37%
    19:00 +14°C° 0 mm 10 m/s 742 mmHg 39%
    20:00 +14°C° 0 mm 10 m/s 741 mmHg 41%
    21:00 +13°C° 0 mm 11 m/s 741 mmHg 43%
    22:00 +13°C° 0 mm 11 m/s 740 mmHg 45%
    23:00 +12°C° 0 mm 10 m/s 740 mmHg 49%

    Amanhã, 18 Fevereiro, Terça-feira

    Tempo Temperatura Precipitação Vento Pressão Humidade
    00:00 +11°C° 0 mm 9 m/s 739 mmHg 53%
    01:00 +11°C° 0 mm 8 m/s 739 mmHg 56%
    02:00 +10°C° 0 mm 8 m/s 739 mmHg 56%
    03:00 +10°C° 0 mm 8 m/s 738 mmHg 57%
    04:00 +9°C° 0 mm 8 m/s 738 mmHg 57%
    05:00 +9°C° 0 mm 11 m/s 738 mmHg 58%
    06:00 +9°C° 0 mm 15 m/s 738 mmHg 59%
    07:00 +9°C° 0 mm 18 m/s 738 mmHg 60%
    08:00 +8°C° 0 mm 19 m/s 739 mmHg 59%
    09:00 +8°C° 0 mm 20 m/s 740 mmHg 58%
    10:00 +8°C° 0 mm 20 m/s 740 mmHg 57%
    11:00 +10°C° 0 mm 20 m/s 741 mmHg 53%
    12:00 +10°C° 0 mm 20 m/s 741 mmHg 48%
    13:00 +11°C° 0 mm 21 m/s 742 mmHg 44%
    14:00 +11°C° 0 mm 20 m/s 742 mmHg 45%
    15:00 +11°C° 0 mm 20 m/s 743 mmHg 45%
    16:00 +10°C° 0 mm 19 m/s 744 mmHg 46%
    17:00 +10°C° 0 mm 19 m/s 744 mmHg 52%
    18:00 +9°C° 0 mm 18 m/s 745 mmHg 57%
    19:00 +7°C° 0 mm 17 m/s 746 mmHg 62%
    20:00 +6°C° 0 mm 17 m/s 746 mmHg 62%
    21:00 +6°C° 0 mm 17 m/s 747 mmHg 62%
    22:00 +5°C° 0 mm 16 m/s 748 mmHg 63%
    23:00 +5°C° 0 mm 17 m/s 748 mmHg 63%

    Depois de amanhã, 19 Fevereiro, Quarta-feira

    Tempo Temperatura Precipitação Vento Pressão Humidade
    00:00 +5°C° 0 mm 17 m/s 749 mmHg 63%
    01:00 +3°C° 0 mm 17 m/s 749 mmHg 63%
    02:00 +3°C° 0 mm 17 m/s 750 mmHg 63%
    03:00 +3°C° 0 mm 17 m/s 750 mmHg 63%
    04:00 +3°C° 0 mm 17 m/s 751 mmHg 63%
    05:00 +5°C° 0 mm 17 m/s 751 mmHg 61%
    06:00 +5°C° 0 mm 17 m/s 752 mmHg 59%
    07:00 +5°C° 0 mm 18 m/s 753 mmHg 57%
    08:00 +6°C° 0 mm 18 m/s 753 mmHg 55%
    09:00 +7°C° 0 mm 18 m/s 753 mmHg 52%
    10:00 +7°C° 0 mm 18 m/s 754 mmHg 49%
    11:00 +9°C° 0 mm 18 m/s 754 mmHg 49%
    12:00 +10°C° 0 mm 18 m/s 755 mmHg 48%
    13:00 +10°C° 0 mm 19 m/s 755 mmHg 47%
    14:00 +10°C° 0 mm 18 m/s 756 mmHg 49%
    15:00 +10°C° 0 mm 18 m/s 757 mmHg 50%
    16:00 +10°C° 0 mm 18 m/s 758 mmHg 51%
    17:00 +9°C° 0 mm 17 m/s 759 mmHg 53%
    18:00 +7°C° 0 mm 16 m/s 760 mmHg 54%
    19:00 +8°C° 0 mm 15 m/s 761 mmHg 56%
    20:00 +6°C° 0 mm 14 m/s 762 mmHg 57%
    21:00 +5°C° 0 mm 14 m/s 763 mmHg 58%
    22:00 +5°C° 0 mm 13 m/s 764 mmHg 59%
    23:00 +4°C° 0 mm 12 m/s 764 mmHg 61%

    20 Fevereiro, Quinta-feira

    Tempo Temperatura Precipitação Vento Pressão Humidade
    00:00 +4°C° 0 mm 11 m/s 765 mmHg 62%
    01:00 +5°C° 0 mm 10 m/s 765 mmHg 63%
    02:00 +5°C° 0 mm 9 m/s 766 mmHg 65%
    03:00 +4°C° 0 mm 8 m/s 766 mmHg 68%
    04:00 +4°C° 0 mm 6 m/s 766 mmHg 71%
    05:00 +5°C° 0 mm 6 m/s 767 mmHg 68%
    06:00 +5°C° 0 mm 6 m/s 767 mmHg 66%
    07:00 +7°C° 0 mm 6 m/s 767 mmHg 64%
    08:00 +8°C° 0 mm 5 m/s 767 mmHg 58%
    09:00 +10°C° 0 mm 4 m/s 768 mmHg 52%
    10:00 +12°C° 0 mm 3 m/s 768 mmHg 46%
    11:00 +13°C° 0 mm 3 m/s 767 mmHg 43%
    12:00 +14°C° 0 mm 3 m/s 767 mmHg 39%
    13:00 +16°C° 0 mm 2 m/s 767 mmHg 35%
    14:00 +17°C° 0 mm 3 m/s 767 mmHg 34%
    15:00 +17°C° 0 mm 4 m/s 767 mmHg 34%
    16:00 +18°C° 0 mm 4 m/s 766 mmHg 34%
    17:00 +16°C° 0 mm 5 m/s 766 mmHg 39%
    18:00 +14°C° 0 mm 5 m/s 766 mmHg 44%
    19:00 +13°C° 0 mm 6 m/s 766 mmHg 50%
    20:00 +13°C° 0 mm 5 m/s 766 mmHg 51%
    21:00 +13°C° 0 mm 5 m/s 766 mmHg 52%
    22:00 +12°C° 0 mm 5 m/s 766 mmHg 53%
    23:00 +12°C° 0 mm 4 m/s 766 mmHg 52%

    21 Fevereiro, Sexta-feira

    Tempo Temperatura Precipitação Vento Pressão Humidade
    00:00 +12°C° 0 mm 3 m/s 766 mmHg 51%
    01:00 +12°C° 0 mm 3 m/s 766 mmHg 50%
    08:00 +17°C° 0 mm 2 m/s 764 mmHg 45%
    09:00 +18°C° 0 mm 2 m/s 764 mmHg 39%
    10:00 +20°C° 0 mm 2 m/s 764 mmHg 34%
    11:00 +21°C° 0 mm 3 m/s 763 mmHg 31%
    12:00 +22°C° 0 mm 4 m/s 763 mmHg 28%
    13:00 +25°C° 0 mm 4 m/s 762 mmHg 25%
    14:00 +23°C° 0 mm 5 m/s 762 mmHg 25%
    15:00 +23°C° 0 mm 5 m/s 761 mmHg 26%
    16:00 +23°C° 0 mm 5 m/s 760 mmHg 26%
    17:00 +22°C° 0 mm 5 m/s 760 mmHg 30%
    18:00 +20°C° 0 mm 5 m/s 759 mmHg 34%
    19:00 +19°C° 0 mm 5 m/s 759 mmHg 39%
    20:00 +19°C° 0 mm 6 m/s 758 mmHg 39%
    21:00 +19°C° 0 mm 6 m/s 758 mmHg 40%
    22:00 +17°C° 0 mm 6 m/s 757 mmHg 41%
    23:00 +17°C° 0 mm 6 m/s 756 mmHg 40%

    22 Fevereiro, Sábado

    Tempo Temperatura Precipitação Vento Pressão Humidade
    00:00 +17°C° 0 mm 5 m/s 756 mmHg 39%
    01:00 +17°C° 0 mm 5 m/s 755 mmHg 39%
    02:00 +16°C° 0 mm 5 m/s 754 mmHg 38%
    03:00 +17°C° 0 mm 4 m/s 754 mmHg 38%
    04:00 +17°C° 0 mm 4 m/s 754 mmHg 37%
    05:00 +16°C° 0 mm 5 m/s 753 mmHg 43%
    06:00 +16°C° 0 mm 6 m/s 753 mmHg 50%
    07:00 +17°C° 0 mm 6 m/s 753 mmHg 56%
    08:00 +20°C° 0 mm 7 m/s 752 mmHg 52%
    09:00 +21°C° 0 mm 8 m/s 752 mmHg 47%
    10:00 +23°C° 0 mm 9 m/s 752 mmHg 43%
    11:00 +23°C° 0 mm 9 m/s 752 mmHg 44%
    12:00 +23°C° 0 mm 9 m/s 752 mmHg 45%
    13:00 +22°C° 0 mm 10 m/s 752 mmHg 46%
    14:00 +21°C° 0 mm 10 m/s 753 mmHg 46%
    15:00 +18°C° 0 mm 10 m/s 753 mmHg 47%
    16:00 +16°C° 0 mm 11 m/s 753 mmHg 48%
    17:00 +14°C° 0 mm 10 m/s 754 mmHg 49%
    18:00 +13°C° 0 mm 10 m/s 755 mmHg 51%
    19:00 +12°C° 0 mm 10 m/s 755 mmHg 53%
    20:00 +11°C° 0 mm 10 m/s 756 mmHg 54%
    21:00 +9°C° 0 mm 10 m/s 757 mmHg 55%
    22:00 +9°C° 0 mm 10 m/s 757 mmHg 56%
    23:00 +8°C° 0 mm 10 m/s 758 mmHg 58%
    Mostrar mais